Location: Aalen
(48.8330°N, 10.1000°E)
Time: 22:38:09
(UTC+02:00)

Transit 2A - Pass Details

Date: 06 August 2021
Orbit: 594 x 964 km, 66.7° (Epoch: 27 September)

Event Time Altitude Azimuth Distance (km) Brightness Sun altitude
Rises 11:19:40 0° 319° (NW) 3,082 8.7 48.8°
Reaches altitude 10° 11:23:47 10° 353° (N) 2,260 8.2 49.4°
Maximum altitude 11:25:29 11° 12° (NNE) 2,197 8.3 49.6°
Drops below altitude 10° 11:27:14 10° 32° (NNE) 2,342 8.6 49.8°
Sets 11:31:44 0° 64° (ENE) 3,380 9.5 50.3°
